Flag for U.S.A. Weather past 2 weeks in Canton, Ohio, U.S.A.

Now
32 °F

Light freezing rain. Overcast.


Feels Like: 22 °F
Forecast: 17 / 44 °F
Wind: 15 mph from South

Location: Akron-Canton Regional Airport

Current Time: Mar 3, 2015 at 2:08:21 PM

Latest Report: Mar 3, 2015 at 1:51 PM


Visibility: 6 mi

Pressure: 29.84 "Hg

Humidity: 75%

Dew point: 25 °F

Location of CantonLocation

Historic Weather in Canton — Graph

°F

Canton temperature yesterday

Maximum temperature yesterday: 27 °F (at 1:51 PM)
Minimum temperature yesterday: 14 °F (at 9:51 PM)
Average temperature yesterday: 22 °F

Past Weeks' High & Low Weather Summary

 TemperatureHumidityPressure
High33 °F (Mar 1, 3:51 PM)92% (Feb 22, 8:51 AM)30.83 "Hg (Feb 22, 8:51 AM)
Low-9 °F (Feb 20, 2:51 AM)31% (Feb 17, 12:51 PM)29.75 "Hg (Feb 18, 5:59 AM)
Average13 °F65%30.23 "Hg
* Reported Feb 16 12:51 PM — Mar 3 12:51 PM, Canton, Weather by CustomWeather, © 2015

Note: Actual official high and low records may vary slightly from our data, if they occured in-between our weather recording intervals... More about our weather records

Advertising

Canton weather history for previous 24 hours

 ConditionsComfort  
Time TempWeatherWind HumidityBarometerVisibility
12:51 PM
Tue, Mar 3
31 °FLight freezing rain. Overcast.13 mph64%29.92 "Hg5 mi
11:51 AM28 °FLight freezing rain. Overcast.10 mph64%30.01 "Hg5 mi
10:51 AM27 °FOvercast.8 mph63%30.11 "Hg7 mi
9:51 AM25 °FOvercast.15 mph66%30.09 "Hg6 mi
8:51 AM24 °FOvercast.9 mph62%30.19 "Hg7 mi
7:51 AM23 °FOvercast.13 mph65%30.18 "Hg6 mi
6:51 AM23 °FOvercast.10 mph63%30.24 "Hg7 mi
5:51 AM22 °FOvercast.9 mph66%30.28 "Hg7 mi
4:51 AM22 °FOvercast.7 mph62%30.31 "Hg8 mi
3:51 AM22 °FOvercast.7 mph62%30.32 "Hg8 mi
2:51 AM22 °FOvercast.8 mph60%30.34 "Hg9 mi
1:51 AM21 °FOvercast.7 mph65%30.37 "Hg7 mi
12:51 AM21 °FOvercast.8 mph65%30.37 "Hg8 mi
11:51 PM
Mon, Mar 2
17 °FPassing clouds.No wind70%30.42 "Hg7 mi
10:51 PM16 °FPassing clouds.No wind71%30.42 "Hg7 mi
9:51 PM14 °FPassing clouds.5 mph71%30.45 "Hg8 mi
8:51 PM19 °FClear.No wind62%30.46 "Hg9 mi
7:51 PM17 °FClear.3 mph64%30.47 "Hg10 mi
6:51 PM19 °FPassing clouds.3 mph57%30.47 "Hg10 mi
5:51 PM24 °FScattered clouds.7 mph50%30.46 "Hg10 mi
4:51 PM27 °FPartly sunny.8 mph49%30.46 "Hg10 mi
3:51 PM27 °FBroken clouds.8 mph53%30.47 "Hg10 mi
2:51 PM27 °FBroken clouds.10 mph55%30.47 "Hg10 mi
Weather by CustomWeather, © 2015

See weather overviewHow to use our weather pages